Find Starlink 37258

NORAD ID: 68951 Int'l Des: 2026-099 Owner: SPXS Country: US Constellation: starlink operational
LEOCIRCULAR

当前视图

正在加载3D地球...

About Starlink 37258

Starlink 37258 (NORAD 68951) is a starlink constellation satellite (v2 mini) launched May 1, 2026 by SPXS of US. It operates in LEO, CIRCULAR orbit with a mass of 575.00 kg.

关于 Starlink 37258

正在加载描述...

即将过境

Passes for default location (London). Set your location on the main map for personalized predictions.

高度历史

Loading altitude history...

两行轨道根数

1 68951U 26099A 26170.96107095 .00018217 00000-0 54890-3 0 9996
2 68951 53.1601 148.6546 0000805 118.4819 241.6265 15.34404443 7696
Epoch: Jun 19, 2026 • Age: 10 hours

当前状态

高度 467.7 km
速度 7.64 km/s
星下点 48.99°N, 134.62°W
发射日期 May 1, 2026
运行时间 0.1 years
类型 internet

技术详情

分类 Payload
质量 575.00 kg
干质量 530.00 kg
总质量 575.00 kg
长度 0.30 m
直径 4.10 m
跨度 29.00 m
形状 Box + pan
制造商 SPXS
平台类型 Starlink V2MO
阶段状态 In Orbit
所有者/国家 SPXS/US

Most Searched